Vorticity
2 4 4 4 3 5 7 7 6 5 5 5 5 4 4 4 5 4 4 4 3 4 4 5 4 5 5 5 6 6 5 5 6
1 3 4 3 4 6 7 7 5 4 5 5 4 5 4 4 4 4 4 3 3 4 4 4 4 5 5 5 6 6 6 7 7
3 2 4 4 4 6 7 6 5 5 5 5 4 4 5 4 4 4 3 4 4 4 4 4 3 3 5 5 6 7 7 6 5
2 4 6 4 5 7 6 5 5 5 5 5 5 4 4 5 4 4 4 5 5 4 4 4 5 5 5 5 6 7 6 5 6
5 5 6 3 5 7 5 4 5 5 4 4 5 5 5 5 4 5 5 5 5 5 4 4 4 5 5 6 7 8 6 8 6
5 4 7 4 6 6 5 4 4 4 4 5 5 6 4 6 5 6 5 5 4 4 5 5 5 5 5 6 8 7 8 5 6
6 5 6 4 5 6 4 4 3 3 4 4 4 6 6 7 6 6 5 5 5 5 5 5 5 5 5 8 6 6 6 6 5
4 6 4 3 6 6 5 4 4 4 4 4 5 5 7 7 6 5 6 5 5 5 5 5 5 6 7 7 6 6 7 5 6
4 6 5 5 8 6 4 3 4 4 4 5 5 6 7 6 5 6 5 5 5 5 6 6 5 5 6 6 6 6 5 7 5
9 8 5 7 7 4 4 4 3 3 4 5 6 6 7 7 6 6 5 5 6 7 5 5 6 6 6 6 5 5 4 5 5
20 7 6 7 4 4 4 3 3 3 5 5 7 7 7 7 6 5 5 7 7 5 6 6 7 7 6 6 5 5 5 5 4
-2 10 7 3 4 4 4 2 3 4 4 7 7 6 6 5 5 6 7 8 8 7 7 7 7 6 5 5 4 3 3 3 4
20 6 -6 7 5 4 2 2 2 4 5 6 6 5 4 4 5 6 5 5 5 5 6 7 6 5 4 2 1 2 4 5 6
-13 11 8 5 4 3 1 2 3 3 6 6 5 5 4 3 3 4 5 5 4 5 6 5 5 3 1 1 2 1 3 4 4
13 16 8 4 4 2 2 2 2 3 4 5 6 7 5 5 5 7 5 3 4 3 5 5 4 3 3 3 3 3 4 5 6
6 12 8 4 3 2 3 2 2 3 4 4 5 4 5 5 5 7 6 7 8 6 6 7 6 3 3 5 8 11 9 11 11
13 13 8 4 4 3 2 2 3 4 4 4 7 4 3 1 5 8 7 -10 -3 8 8 5 5 5 4 2 -5 -7 -9 -3 11
13 11 9 6 4 3 3 4 5 5 10 10 10 3 1 8 14 -4 9 8 21 13 6 7 5 5 4 -5 -2 -5 -6 12 18
16 11 9 7 6 6 4 4 4 7 7 -2 -1 -1 1 11 5 -6 -2 -3 20 0 18 -2 -9 -7 5 -8 3 17 33 9 10
13 11 8 7 5 6 4 9 6 -0 -4 10 3 7 -1 1 18 -13 8 26 24 10 4 19 7 23 32 16 18 5 10 11 8
Height
3165 3168 3168 3169 3170 3170 3170 3170 3170 3170 3171 3172 3173 3173 3174 3174 3174 3174 3173 3173 3172 3172 3172 3171 3170 3169 3168 3167 3166 3165 3164 3163 3161
3165 3167 3168 3168 3169 3170 3170 3170 3171 3171 3171 3172 3173 3173 3174 3174 3175 3174 3174 3174 3173 3173 3172 3172 3171 3170 3168 3167 3166 3164 3164 3162 3161
3164 3166 3167 3168 3169 3169 3170 3170 3171 3171 3172 3172 3173 3173 3173 3174 3174 3174 3174 3174 3174 3173 3172 3172 3170 3169 3168 3167 3166 3165 3163 3162 3161
3163 3166 3167 3168 3168 3169 3170 3170 3171 3171 3172 3173 3173 3174 3174 3174 3174 3174 3174 3174 3173 3173 3172 3171 3170 3169 3168 3167 3166 3165 3163 3162 3160
3161 3164 3165 3166 3167 3168 3169 3170 3171 3171 3171 3172 3173 3173 3174 3173 3174 3174 3173 3173 3173 3172 3171 3171 3169 3168 3167 3166 3164 3163 3162 3161 3159
3159 3161 3163 3165 3167 3168 3169 3170 3170 3170 3171 3171 3172 3173 3173 3173 3173 3173 3173 3173 3172 3171 3171 3170 3169 3167 3166 3165 3164 3163 3161 3160 3158
3157 3159 3161 3164 3165 3166 3168 3169 3170 3170 3171 3171 3171 3172 3172 3172 3172 3172 3172 3171 3171 3170 3170 3169 3168 3167 3166 3164 3163 3162 3160 3159 3158
3154 3157 3158 3161 3163 3165 3167 3168 3169 3170 3170 3170 3170 3170 3171 3171 3171 3171 3170 3170 3170 3169 3169 3168 3167 3166 3165 3163 3162 3160 3159 3158 3155
3151 3154 3157 3159 3162 3164 3166 3167 3168 3169 3170 3170 3169 3170 3170 3169 3169 3169 3169 3169 3168 3168 3167 3166 3165 3164 3162 3161 3160 3159 3157 3156 3154
3148 3151 3155 3158 3160 3162 3164 3166 3167 3168 3168 3168 3168 3168 3168 3168 3168 3168 3168 3167 3166 3166 3165 3164 3163 3163 3161 3160 3158 3157 3155 3154 3152
3144 3147 3152 3155 3158 3160 3162 3164 3165 3166 3167 3167 3167 3166 3166 3166 3166 3166 3167 3166 3164 3164 3163 3162 3162 3161 3159 3158 3157 3155 3153 3151 3150
3140 3143 3149 3151 3155 3158 3160 3161 3162 3163 3164 3164 3164 3164 3164 3163 3163 3164 3164 3165 3162 3162 3161 3160 3159 3158 3157 3156 3154 3152 3151 3148 3146
3133 3137 3142 3149 3152 3155 3157 3158 3160 3161 3162 3162 3161 3161 3161 3161 3161 3161 3161 3160 3160 3160 3159 3158 3157 3155 3154 3152 3152 3150 3148 3145 3143
3124 3130 3140 3145 3148 3152 3154 3155 3157 3158 3159 3159 3159 3158 3158 3157 3158 3159 3157 3158 3155 3155 3155 3154 3154 3152 3151 3149 3147 3146 3144 3141 3138
3121 3127 3136 3140 3144 3147 3150 3152 3154 3155 3155 3155 3155 3155 3154 3154 3154 3154 3154 3153 3152 3151 3151 3150 3149 3148 3147 3145 3143 3141 3139 3137 3135
3120 3127 3132 3136 3140 3144 3146 3148 3149 3151 3151 3151 3151 3151 3150 3150 3150 3150 3149 3149 3149 3148 3146 3145 3144 3143 3142 3140 3138 3136 3134 3132 3129
3116 3122 3127 3132 3136 3139 3141 3144 3145 3146 3146 3147 3147 3147 3146 3146 3145 3144 3144 3144 3144 3144 3141 3140 3139 3137 3135 3134 3132 3131 3129 3127 3125
3111 3118 3123 3127 3131 3135 3138 3139 3140 3141 3141 3142 3143 3140 3141 3140 3140 3140 3139 3138 3138 3137 3135 3134 3133 3131 3130 3128 3126 3125 3123 3120 3119
3108 3113 3118 3123 3126 3129 3132 3133 3134 3134 3134 3135 3135 3135 3135 3134 3133 3133 3132 3130 3131 3130 3129 3127 3126 3125 3123 3122 3121 3118 3116 3115 3113
3103 3109 3113 3117 3121 3124 3125 3126 3126 3125 3126 3128 3128 3127 3127 3125 3125 3125 3125 3121 3121 3120 3121 3120 3120 3118 3116 3116 3114 3112 3110 3110 3108